Regional Weather Roundup
Issued by NWS

Home | Current Version | Previous Version | Text Only | Print | Product List | Glossary Off
Versions: 1 2 3 4 5 6 7 8 9 10 11 12 13 14 15 16 17 18 19 20 21 22 23 24 25 26 27 28 29 30 31 32 33 34 35 36 37 38 39 40 41 42 43 44 45 46 47 48

000
ASUS45 KBOU 190007
RWRCO

WEATHER ROUNDUP FOR COLORADO
NATIONAL WEATHER SERVICE DENVER/BOULDER CO
600 PM MDT THU SEP 18 2014

NOTE: "FAIR" INDICATES FEW OR NO CLOUDS BELOW 12000 FEET WITH NO
SIGNIFICANT WEATHER AND/OR OBSTRUCTIONS TO VISIBILITY.

COZ001>005-013-030-031-190100-
...NORTHWEST COLORADO...

CITY           SKY/WX    TMP DP  RH WIND       PRES   REMARKS
CRAIG          MOSUNNY   83  37  19 SW8       29.97F
HAYDEN         SUNNY     81  36  19 NW5       30.00F
MEEKER         SUNNY     82  36  19 SW9       29.99F
MOUNT WERNER   NOT AVBL
STEAMBOAT SPGS SUNNY     80  35  19 W6        30.02F
WALDEN         MOSUNNY   73  28  19 SW6       30.13S
$$

COZ006>008-011-190100-
...WEST CENTRAL VALLEYS...

CITY           SKY/WX    TMP DP  RH WIND       PRES   REMARKS
GRAND JUNCTION SUNNY     84  45  25 W9        29.88S
MONTROSE       SUNNY     86  37  17 N8        29.96F
EAGLE          MOSUNNY   82  36  18 SW6       30.01S
RIFLE          SUNNY     84  37  18 W13       29.92F
DELTA          SUNNY     91  34  13 W8        29.90S
NUCLA          SUNNY     82  36  18 N5        30.01S
$$

COZ017>023-064>068-190100-
...SOUTHWEST COLORADO...

CITY           SKY/WX    TMP DP  RH WIND       PRES   REMARKS
DURANGO        SUNNY     81  32  17 W7G17     30.03S
CORTEZ         SUNNY     81  38  21 W12       29.99S
PAGOSA SPRINGS MOSUNNY   79  25  13 SW5       30.11S
TELLURIDE      NOT AVBL
WOLF CREEK PAS PTSUNNY   57  30  35 CALM      30.45S
$$

COZ009-010-012-014-032>034-037-058>063-190100-
...CENTRAL COLORADO...

CITY           SKY/WX    TMP DP  RH WIND       PRES   REMARKS
ASPEN          MOSUNNY   74  37  26 W7        30.09S
BUENA VISTA    MOSUNNY   78  24  13 SE8       30.12F
COPPER MTN     PTSUNNY   61  27  27 SE15      30.46F
BERTHOUD PASS  FAIR      48  46  93 E28G41    30.52S
COTTONWOOD PAS MOSUNNY   72  18  13 S8        30.29F
GUNNISON       MOSUNNY   77  27  15 E9        30.10F
KREMMLING      MOSUNNY   79  25  13 CALM      30.07F
LEADVILLE      MOSUNNY   66  19  16 S13       30.27S
MONARCH PASS   SUNNY     54  30  40 E8        30.57S
SALIDA         MOSUNNY   80  28  15 SE9G18    30.17S
SUNLIGHT       SUNNY     63  36  36 W3        30.38S
WILKERSON PASS NOT AVBL
$$

COZ069>075-190100-
...SAN LUIS VALLEY/SANGRE DE CRISTO MOUNTAINS...

CITY           SKY/WX    TMP DP  RH WIND       PRES   REMARKS
ALAMOSA        MOSUNNY   79  30  16 W9        30.10S
LA VETA PASS   SUNNY     59  32  36 NE15G24   30.34S
SAGUACHE       NOT AVBL
$$

COZ035-036-038>040-190100-
...NORTHERN COLORADO FRONT RANGE...

CITY           SKY/WX    TMP DP  RH WIND       PRES   REMARKS
DENVER INTL AP MOSUNNY   85  33  15 S15       29.93F
DMNS CITY PARK   N/A     86  31  14 S13       29.92S
AURORA         MOSUNNY   84  34  16 S16       29.97S
FRONT RANGE AP MOSUNNY   86  37  17 SE13      29.97
ERIE MUNI ARPT NOT AVBL
BOULDER MUN AP SUNNY     86  41  20 CALM      29.92F
CENTENNIAL     MOSUNNY   83  32  16 S16G25    29.98S
BROOMFIELD     NOT AVBL
FORT COLLINS   SUNNY     88  37  16 S6        29.89S
LONGMONT       SUNNY     89  47  23 CALM      29.92F
$$

COZ041-046-047-076>085-087-088-190100-
...PIKES PEAK/PALMER DIVIDE AND SOUTHERN FOOTHILLS...

CITY           SKY/WX    TMP DP  RH WIND       PRES   REMARKS
COLO. SPRINGS  MOSUNNY   81  29  15 SE16      30.06R
A. F. ACADEMY  SUNNY     79  31  17 SE16      30.06S
ELLICOTT       NOT AVBL
FALCON         SUNNY     77  31  18 S13       30.12R
FORT CARSON    SUNNY     82  34  17 SE13      30.02S
LIMON          SUNNY     83  31  15 S10       29.99S
MONUMENT HILL  SUNNY     73  32  21 S14G21    30.10S
TRINIDAD       SUNNY     79  45  29 SE20      30.03S
$$

COZ042>045-048>051-090-091-190100-
...NORTHEAST COLORADO...

CITY           SKY/WX    TMP DP  RH WIND       PRES   REMARKS
GREELEY ARPT   SUNNY     88  43  20 SE10      29.89F
AKRON          CLEAR     83  52  34 E14       29.93S
BURLINGTON     CLEAR     88  37  16 S9        29.93S
WRAY           CLEAR     81  63  53 E16       29.89S
STERLING       CLEAR     88  55  33 SE8       29.86S
HOLYOKE        CLEAR     79  63  57 SE13      29.91R
FORT MORGAN    SUNNY     86  43  22 E9        29.90F
$$

COZ086-089-092>099-190100-
...SOUTHEAST COLORADO...

CITY           SKY/WX    TMP DP  RH WIND       PRES   REMARKS
PUEBLO         SUNNY     88  34  14 SE9       29.92F
LA JUNTA       SUNNY     86  48  26 SE20G28   29.92R
LAMAR          CLEAR     86  51  29 S16G24    29.91R
SPRINGFIELD      N/A     77  55  46 S16       29.99R
$$


USA.gov is the U.S. government's official web portal to all federal, state and local government web resources and services.